TELKOM 4 (MERAH PUTIH)

Last updated on Thu Oct 30 2025 00:02:51 GMT+0000 (Coordinated Universal Time)

1 43587U 18064A 25302.55204691 -.00000334 00000+0 00000+0 0 9999 2 43587 0.0081 70.0160 0001196 155.4527 119.4296 1.00271014 26565
UTC large
Height (km)
Speed (km/s)
/
Latitude / Longitude
Inclination (degrees)
Orbital Period (minutes)
Azimuth
Elevation
Range (km)
Doppler Factor

Next 0 passes for location: London (51.5072 / 0.1276)

Sorry there are no passes over London.